| time (UTC) | temp F | wind direction | speed MPH | gust MPH | rain 1hr in | rain 24hr in | rain mn in | humidity % | barometer mb |
| 20260507083938 | 43 | 242 | 9.0 | 15.0 | 0.00 | 0.00 | 0.00 | 80 | 1001.4 |
| 20260507083435 | 44 | 237 | 6.0 | 15.0 | 0.00 | 0.00 | 0.00 | 80 | 1001.6 |
| 20260507082931 | 44 | 271 | 5.0 | 11.0 | 0.00 | 0.00 | 0.00 | 80 | 1001.6 |
| 20260507082427 | 44 | 279 | 6.0 | 15.0 | 0.00 | 0.00 | 0.00 | 79 | 1001.4 |
| 20260507081924 | 44 | 252 | 9.0 | 10.0 | 0.00 | 0.00 | 0.00 | 80 | 1001.5 |
| 20260507081420 | 44 | 236 | 10.0 | 11.0 | 0.00 | 0.00 | 0.00 | 80 | 1001.6 |
| 20260507080917 | 44 | 232 | 11.0 | 13.0 | 0.00 | 0.00 | 0.00 | 80 | 1001.8 |
| 20260507080414 | 44 | 236 | 8.0 | 11.0 | 0.00 | 0.00 | 0.00 | 80 | 1001.6 |
| 20260507075909 | 44 | 198 | 4.0 | 13.0 | 0.00 | 0.00 | 0.00 | 81 | 1001.9 |
| 20260507075405 | 44 | 252 | 5.0 | 9.0 | 0.00 | 0.00 | 0.00 | 81 | 1001.9 |
| 20260507074902 | 44 | 272 | 5.0 | 13.0 | 0.00 | 0.00 | 0.00 | 81 | 1001.8 |
| 20260507074359 | 44 | 202 | 7.0 | 13.0 | 0.00 | 0.00 | 0.00 | 81 | 1002.2 |
| 20260507073856 | 44 | 245 | 6.0 | 13.0 | 0.00 | 0.00 | 0.00 | 81 | 1002.0 |
| 20260507073353 | 44 | 236 | 4.0 | 11.0 | 0.00 | 0.00 | 0.00 | 81 | 1002.4 |
| 20260507072850 | 44 | 216 | 6.0 | 14.0 | 0.00 | 0.00 | 0.00 | 80 | 1002.3 |
| 20260507072347 | 44 | 221 | 8.0 | 13.0 | 0.00 | 0.00 | 0.00 | 80 | 1002.5 |
| 20260507071845 | 44 | 230 | 11.0 | 15.0 | 0.00 | 0.00 | 0.00 | 81 | 1002.6 |
| 20260507071342 | 44 | 235 | 5.0 | 13.0 | 0.00 | 0.00 | 0.00 | 81 | 1002.9 |
| 20260507070838 | 44 | 222 | 9.0 | 13.0 | 0.00 | 0.00 | 0.00 | 81 | 1002.8 |
| 20260507070335 | 44 | 254 | 8.0 | 14.0 | 0.00 | 0.00 | 0.00 | 81 | 1003.0 |
| 20260507065832 | 44 | 249 | 6.0 | 16.0 | 0.00 | 0.00 | 0.00 | 81 | 1002.9 |
| 20260507065329 | 44 | 234 | 6.0 | 13.0 | 0.00 | 0.00 | 0.00 | 81 | 1003.0 |
| 20260507064826 | 44 | 234 | 6.0 | 10.0 | 0.00 | 0.00 | 0.00 | 80 | 1003.1 |
| 20260507064324 | 44 | 233 | 10.0 | 14.0 | 0.00 | 0.00 | 0.00 | 80 | 1003.1 |
| 20260507063822 | 44 | 235 | 9.0 | 14.0 | 0.00 | 0.00 | 0.00 | 79 | 1003.1 |
| 20260507063318 | 44 | 231 | 6.0 | 15.0 | 0.00 | 0.00 | 0.00 | 80 | 1003.2 |
| 20260507062815 | 45 | 230 | 9.0 | 13.0 | 0.00 | 0.00 | 0.00 | 79 | 1003.3 |
| 20260507062312 | 45 | 220 | 8.0 | 14.0 | 0.00 | 0.00 | 0.00 | 79 | 1003.3 |
| 20260507061810 | 45 | 232 | 11.0 | 14.0 | 0.00 | 0.00 | 0.00 | 79 | 1003.3 |
| 20260507061308 | 45 | 245 | 9.0 | 13.0 | 0.00 | 0.00 | 0.00 | 79 | 1003.2 |
| 20260507060806 | 45 | 240 | 10.0 | 13.0 | 0.00 | 0.00 | 0.00 | 79 | 1003.2 |
| 20260507060303 | 45 | 255 | 7.0 | 14.0 | 0.00 | 0.00 | 0.00 | 79 | 1003.3 |
| 20260507055759 | 45 | 184 | 10.0 | 14.0 | 0.00 | 0.00 | 0.00 | 78 | 1003.4 |
| 20260507055254 | 45 | 239 | 4.0 | 8.0 | 0.00 | 0.00 | 0.00 | 78 | 1003.5 |
| 20260507054751 | 45 | 249 | 4.0 | 8.0 | 0.00 | 0.00 | 0.00 | 78 | 1003.4 |
| 20260507054247 | 45 | 233 | 6.0 | 10.0 | 0.00 | 0.00 | 0.00 | 78 | 1003.6 |
| 20260507053745 | 45 | 216 | 4.0 | 8.0 | 0.00 | 0.00 | 0.00 | 77 | 1003.8 |
| 20260507053242 | 45 | 219 | 6.0 | 11.0 | 0.00 | 0.00 | 0.00 | 77 | 1003.6 |
| 20260507052741 | 46 | 263 | 6.0 | 13.0 | 0.00 | 0.00 | 0.00 | 76 | 1003.6 |
| 20260507052237 | 46 | 212 | 5.0 | 14.0 | 0.00 | 0.00 | 0.00 | 76 | 1003.9 |
| 20260507051736 | 46 | 252 | 6.0 | 14.0 | 0.00 | 0.00 | 0.00 | 76 | 1003.9 |
| 20260507051232 | 46 | 249 | 7.0 | 15.0 | 0.00 | 0.00 | 0.00 | 75 | 1003.8 |
| 20260507050728 | 46 | 241 | 6.0 | 10.0 | 0.00 | 0.00 | 0.00 | 75 | 1003.9 |
| 20260507050226 | 46 | 235 | 6.0 | 13.0 | 0.00 | 0.00 | 0.00 | 74 | 1004.0 |
| 20260507045722 | 46 | 256 | 3.0 | 9.0 | 0.00 | 0.00 | 0.00 | 73 | 1003.8 |
| 20260507045218 | 46 | 228 | 7.0 | 10.0 | 0.00 | 0.00 | 0.00 | 72 | 1003.9 |
| 20260507044716 | 46 | 238 | 7.0 | 11.0 | 0.00 | 0.00 | 0.00 | 71 | 1004.0 |
| 20260507044212 | 46 | 207 | 8.0 | 11.0 | 0.00 | 0.00 | 0.00 | 70 | 1004.0 |
| 20260507043709 | 46 | 242 | 11.0 | 14.0 | 0.00 | 0.00 | 0.00 | 69 | 1004.0 |
| 20260507043205 | 46 | 253 | 5.0 | 11.0 | 0.00 | 0.00 | 0.00 | 68 | 1004.0 |
| 20260507042702 | 47 | 242 | 10.0 | 11.0 | 0.00 | 0.00 | 0.00 | 67 | 1004.2 |
| 20260507042156 | 47 | 226 | 9.0 | 10.0 | 0.00 | 0.00 | 0.00 | 67 | 1004.2 |
| 20260507041654 | 47 | 257 | 6.0 | 11.0 | 0.00 | 0.00 | 0.00 | 65 | 1004.3 |
| 20260507041150 | 47 | 210 | 5.0 | 10.0 | 0.00 | 0.00 | 0.00 | 65 | 1004.4 |
| 20260507040648 | 47 | 221 | 7.0 | 10.0 | 0.00 | 0.00 | 0.00 | 64 | 1004.3 |
| 20260507040144 | 48 | 235 | 6.0 | 9.0 | 0.00 | 0.00 | 0.00 | 63 | 1004.2 |
| 20260507035640 | 48 | 232 | 6.0 | 8.0 | 0.00 | 0.00 | 0.00 | 63 | 1004.3 |
| 20260507035136 | 48 | 198 | 6.0 | 8.0 | 0.00 | 0.00 | 0.00 | 62 | 1004.5 |
| 20260507034633 | 48 | 228 | 4.0 | 11.0 | 0.00 | 0.00 | 0.00 | 62 | 1004.5 |
| 20260507034131 | 48 | 238 | 8.0 | 11.0 | 0.00 | 0.00 | 0.00 | 61 | 1004.4 |
| 20260507033629 | 48 | 228 | 5.0 | 7.0 | 0.00 | 0.00 | 0.00 | 61 | 1004.7 |
| 20260507033126 | 49 | 232 | 5.0 | 10.0 | 0.00 | 0.00 | 0.00 | 60 | 1004.6 |
| 20260507032623 | 49 | 252 | 5.0 | 10.0 | 0.00 | 0.00 | 0.00 | 60 | 1004.5 |
| 20260507032119 | 49 | 197 | 4.0 | 6.0 | 0.00 | 0.00 | 0.00 | 60 | 1004.7 |
| 20260507031616 | 49 | 207 | 6.0 | 13.0 | 0.00 | 0.00 | 0.00 | 59 | 1004.8 |
| 20260507031112 | 50 | 226 | 4.0 | 9.0 | 0.00 | 0.00 | 0.00 | 59 | 1004.7 |
| 20260507030608 | 50 | 235 | 6.0 | 11.0 | 0.00 | 0.00 | 0.00 | 58 | 1004.7 |
| 20260507030107 | 50 | 223 | 8.0 | 11.0 | 0.00 | 0.00 | 0.00 | 59 | 1004.7 |
| 20260507025603 | 50 | 209 | 6.0 | 8.0 | 0.00 | 0.00 | 0.00 | 59 | 1004.5 |
| 20260507025100 | 50 | 219 | 4.0 | 10.0 | 0.00 | 0.00 | 0.00 | 59 | 1004.5 |
| 20260507024559 | 50 | 237 | 6.0 | 9.0 | 0.00 | 0.00 | 0.00 | 59 | 1004.7 |
| 20260507024055 | 50 | 236 | 6.0 | 9.0 | 0.00 | 0.00 | 0.00 | 58 | 1004.5 |
| 20260507023550 | 50 | 224 | 6.0 | 9.0 | 0.00 | 0.00 | 0.00 | 58 | 1004.5 |
| 20260507023048 | 51 | 200 | 3.0 | 14.0 | 0.00 | 0.00 | 0.00 | 58 | 1004.5 |
| 20260507022545 | 51 | 206 | 5.0 | 11.0 | 0.00 | 0.00 | 0.00 | 59 | 1004.4 |
| 20260507022040 | 51 | 245 | 6.0 | 11.0 | 0.00 | 0.00 | 0.00 | 60 | 1004.4 |
| 20260507021537 | 51 | 257 | 7.0 | 9.0 | 0.00 | 0.00 | 0.00 | 60 | 1004.4 |
| 20260507021033 | 51 | 213 | 7.0 | 10.0 | 0.00 | 0.00 | 0.00 | 60 | 1004.5 |
| 20260507020531 | 51 | 230 | 6.0 | 9.0 | 0.00 | 0.00 | 0.00 | 60 | 1004.5 |
| 20260507020027 | 51 | 217 | 8.0 | 10.0 | 0.00 | 0.00 | 0.00 | 60 | 1004.4 |
| 20260507015526 | 52 | 199 | 3.0 | 7.0 | 0.00 | 0.00 | 0.00 | 59 | 1004.5 |
| 20260507015023 | 52 | 193 | 4.0 | 9.0 | 0.00 | 0.00 | 0.00 | 58 | 1004.4 |
| 20260507014519 | 52 | 224 | 6.0 | 9.0 | 0.00 | 0.00 | 0.00 | 57 | 1004.5 |
| 20260507014015 | 52 | 259 | 6.0 | 9.0 | 0.00 | 0.00 | 0.00 | 56 | 1004.6 |
| 20260507013512 | 52 | 231 | 4.0 | 9.0 | 0.00 | 0.00 | 0.00 | 55 | 1004.4 |
| 20260507013009 | 53 | 228 | 5.0 | 8.0 | 0.00 | 0.00 | 0.00 | 54 | 1004.5 |
| 20260507012506 | 53 | 234 | 6.0 | 9.0 | 0.00 | 0.00 | 0.00 | 53 | 1004.3 |
| 20260507012002 | 53 | 278 | 4.0 | 10.0 | 0.00 | 0.00 | 0.00 | 52 | 1004.5 |
| 20260507011500 | 53 | 217 | 3.0 | 6.0 | 0.00 | 0.00 | 0.00 | 52 | 1004.3 |
| 20260507010955 | 54 | 231 | 5.0 | 8.0 | 0.00 | 0.00 | 0.00 | 52 | 1004.3 |
| 20260507010450 | 54 | 217 | 6.0 | 13.0 | 0.00 | 0.00 | 0.00 | 51 | 1004.3 |
| 20260507005947 | 54 | 205 | 0.0 | 11.0 | 0.00 | 0.00 | 0.00 | 51 | 1004.3 |
| 20260507005445 | 55 | 274 | 2.0 | 9.0 | 0.00 | 0.00 | 0.00 | 49 | 1004.3 |
| 20260507004941 | 55 | 222 | 6.0 | 8.0 | 0.00 | 0.00 | 0.00 | 47 | 1004.1 |
| 20260507004437 | 55 | 229 | 4.0 | 6.0 | 0.00 | 0.00 | 0.00 | 46 | 1004.2 |
| 20260507003935 | 55 | 272 | 2.0 | 7.0 | 0.00 | 0.00 | 0.00 | 46 | 1004.1 |
| 20260507003430 | 56 | 259 | 10.0 | 13.0 | 0.00 | 0.00 | 0.00 | 46 | 1004.4 |
| 20260507002925 | 56 | 236 | 4.0 | 8.0 | 0.00 | 0.00 | 0.00 | 45 | 1004.2 |
| 20260507002422 | 56 | 260 | 6.0 | 9.0 | 0.00 | 0.00 | 0.00 | 45 | 1004.0 |
| 20260507001919 | 56 | 210 | 7.0 | 11.0 | 0.00 | 0.00 | 0.00 | 44 | 1004.1 |
| 20260507001416 | 56 | 264 | 6.0 | 11.0 | 0.00 | 0.00 | 0.00 | 44 | 1004.0 |
| 20260507000914 | 56 | 296 | 5.0 | 8.0 | 0.00 | 0.00 | 0.00 | 44 | 1004.2 |
| 20260507000408 | 56 | 247 | 9.0 | 11.0 | 0.00 | 0.00 | 0.00 | 44 | 1004.2 |
| 20260506235904 | 57 | 263 | 10.0 | 13.0 | 0.00 | 0.00 | 0.00 | 42 | 1004.2 |
| 20260506235402 | 57 | 291 | 3.0 | 8.0 | 0.00 | 0.00 | 0.00 | 42 | 1004.2 |
| 20260506234857 | 57 | 241 | 6.0 | 9.0 | 0.00 | 0.00 | 0.00 | 43 | 1004.3 |
| 20260506234355 | 57 | 210 | 8.0 | 9.0 | 0.00 | 0.00 | 0.00 | 43 | 1004.2 |
| 20260506233853 | 57 | 258 | 6.0 | 9.0 | 0.00 | 0.00 | 0.00 | 41 | 1004.3 |
| 20260506233349 | 58 | 228 | 6.0 | 8.0 | 0.00 | 0.00 | 0.00 | 42 | 1004.4 |
| 20260506232846 | 58 | 239 | 6.0 | 10.0 | 0.00 | 0.00 | 0.00 | 40 | 1004.4 |
| 20260506232342 | 57 | 316 | 5.0 | 9.0 | 0.00 | 0.00 | 0.00 | 42 | 1004.4 |
| 20260506231838 | 56 | 296 | 2.0 | 2.0 | 0.00 | 0.00 | 0.00 | 43 | 1004.5 |
| 20260506231336 | 55 | 278 | 1.0 | 4.0 | 0.00 | 0.00 | 0.00 | 45 | 1004.4 |
| 20260506230833 | 55 | 246 | 2.0 | 3.0 | 0.00 | 0.00 | 0.00 | 44 | 1004.5 |
| 20260506230330 | 55 | 198 | 0.0 | 2.0 | 0.00 | 0.00 | 0.00 | 46 | 1004.5 |
| 20260506225826 | 56 | 254 | 0.0 | 4.0 | 0.00 | 0.00 | 0.00 | 43 | 1004.4 |
| 20260506225323 | 56 | 260 | 3.0 | 3.0 | 0.00 | 0.00 | 0.00 | 43 | 1004.7 |
| 20260506224820 | 56 | 278 | 3.0 | 7.0 | 0.00 | 0.00 | 0.00 | 43 | 1004.7 |
| 20260506224317 | 55 | 237 | 0.0 | 7.0 | 0.00 | 0.00 | 0.00 | 42 | 1004.6 |
| 20260506223814 | 56 | 258 | 6.0 | 7.0 | 0.00 | 0.00 | 0.00 | 40 | 1004.7 |
| 20260506223309 | 56 | 204 | 7.0 | 9.0 | 0.00 | 0.00 | 0.00 | 40 | 1004.8 |
| 20260506222806 | 56 | 277 | 2.0 | 7.0 | 0.00 | 0.00 | 0.00 | 41 | 1004.7 |
| 20260506222305 | 56 | 218 | 6.0 | 9.0 | 0.00 | 0.00 | 0.00 | 40 | 1004.7 |
| 20260506221754 | 56 | 228 | 4.0 | 6.0 | 0.00 | 0.00 | 0.00 | 40 | 1004.7 |
| 20260506221251 | 56 | 239 | 3.0 | 7.0 | 0.00 | 0.00 | 0.00 | 40 | 1004.8 |
| 20260506220749 | 56 | 230 | 6.0 | 8.0 | 0.00 | 0.00 | 0.00 | 39 | 1004.8 |
| 20260506220243 | 56 | 217 | 7.0 | 10.0 | 0.00 | 0.00 | 0.00 | 40 | 1004.9 |
| 20260506215741 | 56 | 243 | 4.0 | 8.0 | 0.00 | 0.00 | 0.00 | 38 | 1004.9 |
| 20260506215236 | 57 | 233 | 4.0 | 7.0 | 0.00 | 0.00 | 0.00 | 38 | 1005.1 |
| 20260506214733 | 57 | 244 | 0.0 | 0.0 | 0.00 | 0.00 | 0.00 | 36 | 1004.8 |
| 20260506214230 | 56 | 229 | 0.0 | 6.0 | 0.00 | 0.00 | 0.00 | 38 | 1004.9 |
| 20260506213728 | 56 | 275 | 1.0 | 3.0 | 0.00 | 0.00 | 0.00 | 37 | 1005.1 |
| 20260506213225 | 55 | 244 | 2.0 | 6.0 | 0.00 | 0.00 | 0.00 | 37 | 1004.9 |
| 20260506212722 | 56 | 305 | 4.0 | 9.0 | 0.00 | 0.00 | 0.00 | 36 | 1005.1 |
| 20260506212218 | 57 | 321 | 6.0 | 8.0 | 0.00 | 0.00 | 0.00 | 37 | 1005.2 |
| 20260506211713 | 57 | 286 | 2.0 | 7.0 | 0.00 | 0.00 | 0.00 | 36 | 1005.1 |
| 20260506211210 | 58 | 333 | 5.0 | 7.0 | 0.00 | 0.00 | 0.00 | 36 | 1005.4 |
| 20260506210707 | 56 | 303 | 2.0 | 3.0 | 0.00 | 0.00 | 0.00 | 37 | 1005.2 |
| 20260506210204 | 57 | 210 | 4.0 | 6.0 | 0.00 | 0.00 | 0.00 | 36 | 1005.6 |
| 20260506205702 | 56 | 300 | 1.0 | 2.0 | 0.00 | 0.00 | 0.00 | 35 | 1005.6 |
| 20260506205202 | 57 | 285 | 3.0 | 8.0 | 0.00 | 0.00 | 0.00 | 37 | 1005.8 |
| 20260506204659 | 57 | 284 | 4.0 | 8.0 | 0.00 | 0.00 | 0.00 | 34 | 1005.8 |
| 20260506204156 | 57 | 345 | 3.0 | 4.0 | 0.00 | 0.00 | 0.00 | 35 | 1005.8 |
| 20260506203654 | 56 | 266 | 3.0 | 7.0 | 0.00 | 0.00 | 0.00 | 38 | 1005.8 |
| 20260506203151 | 55 | 269 | 4.0 | 7.0 | 0.00 | 0.00 | 0.00 | 36 | 1006.0 |
| 20260506202649 | 55 | 329 | 5.0 | 9.0 | 0.00 | 0.00 | 0.00 | 37 | 1006.1 |
| 20260506202145 | 56 | 15 | 4.0 | 7.0 | 0.00 | 0.00 | 0.00 | 36 | 1006.0 |
| 20260506201642 | 56 | 232 | 2.0 | 3.0 | 0.00 | 0.00 | 0.00 | 36 | 1005.9 |
| 20260506201138 | 56 | 176 | 4.0 | 8.0 | 0.00 | 0.00 | 0.00 | 38 | 1006.0 |
| 20260506200635 | 55 | 294 | 1.0 | 4.0 | 0.00 | 0.00 | 0.00 | 38 | 1006.1 |
| 20260506200132 | 55 | 337 | 1.0 | 6.0 | 0.00 | 0.00 | 0.00 | 37 | 1006.1 |
| 20260506195628 | 55 | 307 | 3.0 | 7.0 | 0.00 | 0.00 | 0.00 | 37 | 1006.1 |
| 20260506195125 | 56 | 287 | 2.0 | 7.0 | 0.00 | 0.00 | 0.00 | 37 | 1006.2 |
| 20260506194622 | 55 | 275 | 5.0 | 8.0 | 0.00 | 0.00 | 0.00 | 36 | 1006.2 |
| 20260506194118 | 56 | 320 | 5.0 | 10.0 | 0.00 | 0.00 | 0.00 | 36 | 1006.3 |
| 20260506193617 | 55 | 243 | 5.0 | 7.0 | 0.00 | 0.00 | 0.00 | 38 | 1006.3 |
| 20260506193114 | 54 | 220 | 3.0 | 4.0 | 0.00 | 0.00 | 0.00 | 37 | 1006.3 |
| 20260506192610 | 55 | 209 | 4.0 | 6.0 | 0.00 | 0.00 | 0.00 | 38 | 1006.4 |
| 20260506192106 | 57 | 305 | 4.0 | 10.0 | 0.00 | 0.00 | 0.00 | 38 | 1006.4 |
| 20260506191603 | 55 | 249 | 3.0 | 6.0 | 0.00 | 0.00 | 0.00 | 39 | 1006.5 |
| 20260506191059 | 54 | 279 | 0.0 | 3.0 | 0.00 | 0.00 | 0.00 | 38 | 1006.5 |
| 20260506190556 | 55 | 299 | 4.0 | 6.0 | 0.00 | 0.00 | 0.00 | 36 | 1006.5 |
| 20260506190053 | 55 | 243 | 4.0 | 10.0 | 0.00 | 0.00 | 0.00 | 39 | 1006.6 |
| 20260506185550 | 54 | 193 | 4.0 | 7.0 | 0.00 | 0.00 | 0.00 | 40 | 1006.7 |
| 20260506185047 | 55 | 182 | 2.0 | 3.0 | 0.00 | 0.00 | 0.00 | 43 | 1006.8 |
| 20260506184544 | 56 | 124 | 3.0 | 4.0 | 0.00 | 0.00 | 0.00 | 39 | 1007.0 |
| 20260506184042 | 53 | 301 | 0.0 | 8.0 | 0.00 | 0.00 | 0.00 | 37 | 1007.1 |
| 20260506183537 | 53 | 209 | 3.0 | 3.0 | 0.00 | 0.00 | 0.00 | 40 | 1007.0 |
| 20260506183034 | 55 | 240 | 4.0 | 7.0 | 0.00 | 0.00 | 0.00 | 38 | 1007.0 |
| 20260506182532 | 54 | 205 | 3.0 | 8.0 | 0.00 | 0.00 | 0.00 | 40 | 1007.2 |
| 20260506182029 | 54 | 280 | 4.0 | 6.0 | 0.00 | 0.00 | 0.00 | 36 | 1007.1 |
| 20260506181527 | 54 | 31 | 1.0 | 4.0 | 0.00 | 0.00 | 0.00 | 37 | 1007.3 |
| 20260506181023 | 54 | 324 | 4.0 | 8.0 | 0.00 | 0.00 | 0.00 | 38 | 1007.3 |
| 20260506180520 | 54 | 318 | 1.0 | 7.0 | 0.00 | 0.00 | 0.00 | 37 | 1007.3 |
| 20260506180016 | 55 | 224 | 5.0 | 10.0 | 0.00 | 0.00 | 0.00 | 37 | 1007.3 |
| 20260506175513 | 53 | 177 | 1.0 | 6.0 | 0.00 | 0.00 | 0.00 | 41 | 1007.4 |
| 20260506175009 | 53 | 209 | 5.0 | 7.0 | 0.00 | 0.00 | 0.00 | 36 | 1007.4 |
| 20260506174508 | 53 | 311 | 0.0 | 1.0 | 0.00 | 0.00 | 0.00 | 37 | 1007.5 |
| 20260506174003 | 54 | 357 | 0.0 | 0.0 | 0.00 | 0.00 | 0.00 | 38 | 1007.5 |
| 20260506173502 | 53 | 243 | 0.0 | 1.0 | 0.00 | 0.00 | 0.00 | 39 | 1007.6 |
| 20260506172958 | 53 | 198 | 2.0 | 3.0 | 0.00 | 0.00 | 0.00 | 39 | 1007.4 |
| 20260506172456 | 53 | 303 | 0.0 | 4.0 | 0.00 | 0.00 | 0.00 | 37 | 1007.6 |
| 20260506171951 | 53 | 330 | 5.0 | 6.0 | 0.00 | 0.00 | 0.00 | 37 | 1007.6 |
| 20260506171449 | 53 | 313 | 4.0 | 4.0 | 0.00 | 0.00 | 0.00 | 38 | 1007.5 |
| 20260506170947 | 54 | 344 | 5.0 | 7.0 | 0.00 | 0.00 | 0.00 | 37 | 1007.5 |
| 20260506170443 | 56 | 99 | 0.0 | 1.0 | 0.00 | 0.00 | 0.00 | 40 | 1007.5 |
| 20260506165942 | 54 | 207 | 0.0 | 1.0 | 0.00 | 0.00 | 0.00 | 37 | 1007.5 |
| 20260506165440 | 51 | 354 | 0.0 | 3.0 | 0.00 | 0.00 | 0.00 | 38 | 1007.5 |
| 20260506164930 | 52 | 302 | 2.0 | 2.0 | 0.00 | 0.00 | 0.00 | 38 | 1007.6 |
| 20260506164427 | 52 | 0 | 0.0 | 0.0 | 0.00 | 0.00 | 0.00 | 39 | 1007.4 |
| 20260506163925 | 51 | 308 | 0.0 | 6.0 | 0.00 | 0.00 | 0.00 | 39 | 1007.4 |
| 20260506163419 | 51 | 25 | 0.0 | 1.0 | 0.00 | 0.00 | 0.00 | 40 | 1007.5 |
| 20260506162914 | 52 | 31 | 0.0 | 2.0 | 0.00 | 0.00 | 0.00 | 39 | 1007.5 |
| 20260506162413 | 52 | 210 | 0.0 | 0.0 | 0.00 | 0.00 | 0.00 | 41 | 1007.5 |
| 20260506161910 | 52 | 283 | 2.0 | 6.0 | 0.00 | 0.00 | 0.00 | 37 | 1007.6 |
| 20260506161408 | 52 | 177 | 0.0 | 6.0 | 0.00 | 0.00 | 0.00 | 43 | 1007.5 |
| 20260506160905 | 50 | 215 | 0.0 | 2.0 | 0.00 | 0.00 | 0.00 | 40 | 1007.7 |
| 20260506160402 | 50 | 288 | 1.0 | 3.0 | 0.00 | 0.00 | 0.00 | 38 | 1007.5 |
| 20260506155900 | 51 | 245 | 5.0 | 7.0 | 0.00 | 0.00 | 0.00 | 39 | 1007.5 |
| 20260506155356 | 53 | 326 | 2.0 | 6.0 | 0.00 | 0.00 | 0.00 | 42 | 1007.5 |
| 20260506153513 | 50 | 318 | 3.0 | 8.0 | 0.00 | 0.00 | 0.00 | 41 | 1007.8 |
| 20260506153011 | 51 | 279 | 3.0 | 3.0 | 0.00 | 0.00 | 0.00 | 41 | 1007.8 |
| 20260506152508 | 50 | 320 | 2.0 | 4.0 | 0.00 | 0.00 | 0.00 | 42 | 1007.6 |
| 20260506152006 | 51 | 336 | 4.0 | 6.0 | 0.00 | 0.00 | 0.00 | 39 | 1007.7 |
| 20260506151503 | 51 | 43 | 0.0 | 0.0 | 0.00 | 0.00 | 0.00 | 45 | 1007.7 |
| 20260506151000 | 50 | 324 | 0.0 | 0.0 | 0.00 | 0.00 | 0.00 | 42 | 1007.7 |
| 20260506150456 | 50 | 303 | 0.0 | 0.0 | 0.00 | 0.00 | 0.00 | 39 | 1007.6 |
| 20260506145953 | 50 | 274 | 0.0 | 1.0 | 0.00 | 0.00 | 0.00 | 41 | 1007.7 |
| 20260506145449 | 50 | 328 | 2.0 | 3.0 | 0.00 | 0.00 | 0.00 | 41 | 1007.5 |
| 20260506144947 | 50 | 195 | 0.0 | 0.0 | 0.00 | 0.00 | 0.00 | 45 | 1007.6 |
| 20260506144444 | 50 | 268 | 0.0 | 6.0 | 0.00 | 0.00 | 0.00 | 43 | 1007.4 |
| 20260506143942 | 50 | 287 | 0.0 | 0.0 | 0.00 | 0.00 | 0.00 | 44 | 1007.6 |
| 20260506143439 | 49 | 0 | 0.0 | 0.0 | 0.00 | 0.00 | 0.00 | 49 | 1007.6 |
| 20260506142937 | 49 | 260 | 0.0 | 0.0 | 0.00 | 0.00 | 0.00 | 45 | 1007.7 |
| 20260506142435 | 48 | 323 | 0.0 | 2.0 | 0.00 | 0.00 | 0.00 | 46 | 1007.7 |
| 20260506141932 | 48 | 320 | 1.0 | 3.0 | 0.00 | 0.00 | 0.00 | 47 | 1007.7 |
| 20260506141430 | 47 | 6 | 0.0 | 1.0 | 0.00 | 0.00 | 0.00 | 48 | 1007.5 |
| 20260506140929 | 48 | 359 | 0.0 | 0.0 | 0.00 | 0.00 | 0.00 | 54 | 1007.5 |
| 20260506140425 | 46 | 359 | 0.0 | 2.0 | 0.00 | 0.00 | 0.00 | 49 | 1007.4 |
| 20260506135922 | 46 | 318 | 0.0 | 1.0 | 0.00 | 0.00 | 0.00 | 62 | 1007.5 |
| 20260506135419 | 45 | 353 | 1.0 | 1.0 | 0.00 | 0.00 | 0.00 | 63 | 1007.5 |
| 20260506134915 | 44 | 321 | 1.0 | 2.0 | 0.00 | 0.00 | 0.00 | 65 | 1007.4 |
| 20260506134411 | 44 | 328 | 1.0 | 1.0 | 0.00 | 0.00 | 0.00 | 68 | 1007.5 |
| 20260506133909 | 43 | 248 | 1.0 | 1.0 | 0.00 | 0.00 | 0.00 | 68 | 1007.4 |
| 20260506133405 | 43 | 323 | 0.0 | 1.0 | 0.00 | 0.00 | 0.00 | 69 | 1007.4 |
| 20260506132902 | 43 | 314 | 2.0 | 2.0 | 0.00 | 0.00 | 0.00 | 69 | 1007.3 |
| 20260506132359 | 42 | 334 | 2.0 | 2.0 | 0.00 | 0.00 | 0.00 | 69 | 1007.2 |
| 20260506131857 | 42 | 300 | 1.0 | 2.0 | 0.00 | 0.00 | 0.00 | 70 | 1007.3 |
| 20260506131353 | 42 | 333 | 1.0 | 3.0 | 0.00 | 0.00 | 0.00 | 71 | 1007.3 |
| 20260506130850 | 42 | 306 | 1.0 | 2.0 | 0.00 | 0.00 | 0.00 | 73 | 1007.2 |
| 20260506130346 | 42 | 347 | 2.0 | 3.0 | 0.00 | 0.00 | 0.00 | 73 | 1007.1 |
| 20260506125845 | 42 | 336 | 2.0 | 2.0 | 0.00 | 0.00 | 0.00 | 72 | 1007.2 |
| 20260506125343 | 42 | 328 | 1.0 | 2.0 | 0.00 | 0.00 | 0.00 | 74 | 1006.8 |
| 20260506124841 | 41 | 341 | 2.0 | 3.0 | 0.00 | 0.00 | 0.00 | 75 | 1006.6 |
| 20260506124337 | 41 | 307 | 0.0 | 2.0 | 0.00 | 0.00 | 0.00 | 75 | 1006.8 |
| 20260506123835 | 41 | 335 | 2.0 | 2.0 | 0.00 | 0.00 | 0.00 | 74 | 1006.6 |
| 20260506123333 | 41 | 335 | 2.0 | 2.0 | 0.00 | 0.00 | 0.00 | 77 | 1006.5 |
| 20260506122830 | 41 | 311 | 1.0 | 2.0 | 0.00 | 0.00 | 0.00 | 77 | 1006.6 |
| 20260506122327 | 40 | 292 | 1.0 | 1.0 | 0.00 | 0.00 | 0.00 | 76 | 1006.6 |
| 20260506121826 | 40 | 278 | 1.0 | 1.0 | 0.00 | 0.00 | 0.00 | 76 | 1006.3 |
| 20260506121322 | 40 | 283 | 0.0 | 0.0 | 0.00 | 0.00 | 0.00 | 76 | 1006.4 |
| 20260506120819 | 40 | 329 | 2.0 | 3.0 | 0.00 | 0.00 | 0.00 | 77 | 1006.3 |
| 20260506120317 | 40 | 318 | 1.0 | 2.0 | 0.00 | 0.00 | 0.00 | 76 | 1006.2 |
| 20260506115814 | 40 | 299 | 1.0 | 2.0 | 0.00 | 0.00 | 0.00 | 77 | 1006.1 |
| 20260506115313 | 40 | 303 | 0.0 | 1.0 | 0.00 | 0.00 | 0.00 | 79 | 1006.1 |
| 20260506114810 | 40 | 299 | 1.0 | 1.0 | 0.00 | 0.00 | 0.00 | 79 | 1006.0 |
| 20260506114308 | 40 | 298 | 0.0 | 0.0 | 0.00 | 0.00 | 0.00 | 80 | 1006.0 |
| 20260506113806 | 40 | 285 | 0.0 | 1.0 | 0.00 | 0.00 | 0.00 | 80 | 1006.0 |
| 20260506113303 | 40 | 306 | 0.0 | 1.0 | 0.00 | 0.00 | 0.00 | 79 | 1006.0 |
| 20260506112759 | 40 | 308 | 1.0 | 1.0 | 0.00 | 0.00 | 0.00 | 80 | 1005.9 |
| 20260506112257 | 40 | 308 | 1.0 | 2.0 | 0.00 | 0.00 | 0.00 | 83 | 1005.8 |
| 20260506111754 | 40 | 297 | 1.0 | 1.0 | 0.00 | 0.00 | 0.00 | 83 | 1005.8 |
| 20260506111252 | 40 | 300 | 0.0 | 1.0 | 0.00 | 0.00 | 0.00 | 82 | 1005.7 |
| 20260506110749 | 40 | 299 | 0.0 | 1.0 | 0.00 | 0.00 | 0.00 | 81 | 1005.8 |
| 20260506110247 | 39 | 304 | 1.0 | 1.0 | 0.00 | 0.00 | 0.00 | 82 | 1005.7 |
| 20260506105743 | 40 | 317 | 1.0 | 2.0 | 0.00 | 0.00 | 0.00 | 82 | 1005.7 |
| 20260506105240 | 40 | 321 | 1.0 | 2.0 | 0.00 | 0.00 | 0.00 | 83 | 1005.7 |
| 20260506104738 | 40 | 310 | 1.0 | 1.0 | 0.00 | 0.00 | 0.00 | 85 | 1005.5 |
| 20260506104235 | 40 | 310 | 0.0 | 1.0 | 0.00 | 0.00 | 0.00 | 86 | 1005.4 |
| 20260506103732 | 40 | 309 | 0.0 | 1.0 | 0.00 | 0.00 | 0.00 | 88 | 1005.5 |
| 20260506103229 | 40 | 307 | 0.0 | 1.0 | 0.00 | 0.00 | 0.00 | 88 | 1005.5 |
| 20260506102727 | 40 | 307 | 0.0 | 0.0 | 0.00 | 0.00 | 0.00 | 88 | 1005.2 |
| 20260506102225 | 40 | 313 | 0.0 | 1.0 | 0.00 | 0.00 | 0.00 | 88 | 1005.5 |
| 20260506101721 | 40 | 317 | 0.0 | 1.0 | 0.00 | 0.00 | 0.00 | 88 | 1005.6 |
| 20260506101218 | 40 | 325 | 0.0 | 1.0 | 0.00 | 0.00 | 0.00 | 88 | 1005.4 |
| 20260506100716 | 40 | 325 | 1.0 | 2.0 | 0.00 | 0.00 | 0.00 | 87 | 1005.1 |
| 20260506100214 | 40 | 320 | 1.0 | 1.0 | 0.00 | 0.00 | 0.00 | 87 | 1005.2 |
| 20260506095712 | 41 | 319 | 0.0 | 2.0 | 0.00 | 0.00 | 0.00 | 87 | 1005.2 |
| 20260506095209 | 41 | 320 | 1.0 | 1.0 | 0.00 | 0.00 | 0.00 | 87 | 1005.2 |
| 20260506094706 | 41 | 318 | 0.0 | 1.0 | 0.00 | 0.00 | 0.00 | 87 | 1005.2 |
| 20260506094204 | 41 | 318 | 1.0 | 1.0 | 0.00 | 0.00 | 0.00 | 87 | 1005.4 |
| 20260506093703 | 41 | 318 | 0.0 | 2.0 | 0.00 | 0.00 | 0.00 | 87 | 1005.1 |
| 20260506093159 | 41 | 323 | 1.0 | 1.0 | 0.00 | 0.00 | 0.00 | 88 | 1005.2 |
| 20260506092657 | 41 | 318 | 0.0 | 1.0 | 0.00 | 0.00 | 0.00 | 88 | 1005.2 |
| 20260506092154 | 41 | 312 | 1.0 | 2.0 | 0.00 | 0.00 | 0.00 | 88 | 1005.2 |
| 20260506091652 | 41 | 321 | 1.0 | 2.0 | 0.00 | 0.00 | 0.00 | 88 | 1005.0 |
| 20260506091149 | 41 | 323 | 2.0 | 3.0 | 0.00 | 0.00 | 0.00 | 88 | 1005.0 |
| 20260506090647 | 41 | 331 | 1.0 | 3.0 | 0.00 | 0.00 | 0.00 | 88 | 1004.9 |
| 20260506090143 | 41 | 296 | 1.0 | 1.0 | 0.00 | 0.00 | 0.00 | 88 | 1005.0 |
| 20260506085640 | 41 | 286 | 1.0 | 2.0 | 0.00 | 0.00 | 0.00 | 88 | 1005.0 |
| 20260506085136 | 41 | 286 | 2.0 | 2.0 | 0.00 | 0.00 | 0.00 | 88 | 1004.9 |
| 20260506084633 | 41 | 310 | 1.0 | 1.0 | 0.00 | 0.00 | 0.00 | 87 | 1004.8 |
| 20260506084130 | 41 | 301 | 2.0 | 2.0 | 0.00 | 0.00 | 0.00 | 87 | 1004.9 |